QPF
0.00 0.01 0.01 0.02 0.01 0.01 0.02 0.01 0.02 0.02 0.02 0.01 0.02 0.02 0.01 0.01 0.02 0.01 0.00 0.00 0.00 0.00 0.00 0.00 0.00 0.01 0.01 0.00 0.00 0.00 0.01 0.01 0.01 0.01 0.01 0.01 0.01 0.01 0.01 0.01 0.01 0.01 0.01 0.00 0.00 0.00 0.00 0.00 0.00
0.01 0.02 0.05 0.05 0.01 0.01 0.01 0.01 0.01 0.02 0.02 0.02 0.02 0.03 0.04 0.04 0.03 0.02 0.00 0.00 0.00 0.00 0.00 0.00 0.01 0.01 0.00 0.00 0.00 0.00 0.01 0.01 0.00 0.00 0.01 0.01 0.01 0.01 0.01 0.01 0.00 0.00 0.00 0.00 0.00 0.00 0.00 0.00 0.00
0.01 0.05 0.11 0.05 0.01 0.00 0.00 0.01 0.01 0.02 0.01 0.02 0.02 0.04 0.08 0.07 0.04 0.03 0.01 0.00 0.00 0.00 0.00 0.00 0.01 0.01 0.00 0.00 0.00 0.00 0.01 0.00 0.00 0.00 0.00 0.00 0.00 0.00 0.00 0.00 0.00 0.00 0.00 0.00 0.00 0.00 0.00 0.00 0.00
0.04 0.13 0.13 0.05 0.01 0.00 0.00 0.00 0.01 0.02 0.01 0.02 0.03 0.06 0.13 0.09 0.05 0.04 0.03 0.01 0.00 0.00 0.00 0.01 0.01 0.01 0.00 0.00 0.00 0.01 0.01 0.00 0.00 0.00 0.00 0.00 0.00 0.00 0.00 0.00 0.00 0.00 0.00 0.00 0.00 0.00 0.00 0.00 0.00
0.09 0.17 0.11 0.04 0.00 0.00 0.00 0.00 0.01 0.02 0.01 0.01 0.03 0.09 0.17 0.13 0.10 0.10 0.05 0.01 0.00 0.00 0.00 0.01 0.01 0.00 0.00 0.00 0.00 0.01 0.01 0.00 0.00 0.00 0.00 0.00 0.00 0.00 0.00 0.00 0.00 0.00 0.00 0.00 0.00 0.00 0.00 0.00 0.00
0.12 0.15 0.10 0.04 0.00 0.00 0.00 0.00 0.00 0.01 0.01 0.01 0.03 0.09 0.19 0.19 0.16 0.17 0.11 0.03 0.01 0.00 0.01 0.02 0.01 0.00 0.00 0.00 0.00 0.01 0.01 0.00 0.00 0.00 0.00 0.00 0.00 0.00 0.00 0.00 0.00 0.00 0.00 0.00 0.00 0.00 0.00 0.00 0.00
0.10 0.09 0.07 0.04 0.01 0.00 0.00 0.00 0.00 0.00 0.01 0.01 0.02 0.08 0.16 0.22 0.19 0.19 0.17 0.08 0.02 0.01 0.01 0.02 0.01 0.01 0.00 0.00 0.00 0.01 0.01 0.01 0.00 0.00 0.00 0.00 0.00 0.00 0.00 0.00 0.00 0.00 0.00 0.00 0.00 0.00 0.00 0.00 0.00
0.11 0.11 0.05 0.03 0.01 0.01 0.00 0.00 0.00 0.00 0.01 0.01 0.02 0.06 0.11 0.17 0.21 0.23 0.21 0.17 0.08 0.03 0.01 0.01 0.01 0.01 0.01 0.00 0.00 0.01 0.00 0.00 0.00 0.00 0.00 0.00 0.00 0.00 0.00 0.00 0.00 0.00 0.00 0.00 0.00 0.00 0.00 0.00 0.00
0.13 0.13 0.05 0.02 0.01 0.01 0.01 0.01 0.01 0.00 0.00 0.02 0.03 0.05 0.08 0.12 0.21 0.29 0.26 0.23 0.14 0.06 0.02 0.01 0.01 0.00 0.00 0.00 0.00 0.00 0.00 0.00 0.00 0.00 0.00 0.00 0.00 0.00 0.00 0.00 0.00 0.00 0.00 0.00 0.00 0.00 0.00 0.00 0.00
0.14 0.12 0.06 0.02 0.02 0.03 0.03 0.03 0.02 0.01 0.01 0.03 0.07 0.08 0.09 0.13 0.19 0.28 0.28 0.23 0.18 0.11 0.05 0.02 0.01 0.00 0.00 0.00 0.00 0.00 0.00 0.00 0.00 0.00 0.00 0.00 0.00 0.00 0.00 0.00 0.00 0.00 0.00 0.00 0.00 0.00 0.00 0.00 0.00
0.11 0.08 0.06 0.04 0.05 0.05 0.05 0.03 0.02 0.01 0.01 0.02 0.04 0.07 0.10 0.12 0.15 0.23 0.27 0.23 0.19 0.15 0.11 0.06 0.03 0.01 0.00 0.00 0.00 0.00 0.00 0.00 0.00 0.00 0.00 0.00 0.00 0.00 0.00 0.00 0.00 0.00 0.00 0.00 0.00 0.00 0.00 0.00 0.00
0.06 0.05 0.05 0.07 0.06 0.07 0.06 0.04 0.03 0.02 0.01 0.01 0.03 0.05 0.07 0.09 0.10 0.14 0.22 0.22 0.19 0.14 0.13 0.10 0.08 0.04 0.01 0.01 0.00 0.00 0.00 0.00 0.00 0.00 0.00 0.00 0.00 0.00 0.00 0.00 0.00 0.00 0.00 0.00 0.00 0.00 0.00 0.00 0.00
0.05 0.05 0.06 0.08 0.07 0.08 0.07 0.06 0.05 0.03 0.03 0.04 0.07 0.09 0.09 0.09 0.09 0.10 0.15 0.19 0.18 0.16 0.14 0.13 0.11 0.09 0.03 0.01 0.00 0.00 0.00 0.00 0.00 0.00 0.00 0.00 0.00 0.00 0.00 0.00 0.00 0.00 0.00 0.00 0.00 0.00 0.00 0.00 0.00
0.05 0.05 0.06 0.09 0.09 0.08 0.09 0.08 0.09 0.06 0.06 0.08 0.12 0.13 0.13 0.13 0.12 0.12 0.12 0.14 0.15 0.17 0.16 0.15 0.15 0.13 0.06 0.02 0.01 0.00 0.00 0.00 0.00 0.00 0.00 0.00 0.00 0.00 0.00 0.00 0.00 0.00 0.00 0.00 0.00 0.00 0.00 0.00 0.00
0.06 0.07 0.07 0.10 0.10 0.10 0.11 0.13 0.10 0.09 0.09 0.08 0.10 0.12 0.15 0.17 0.17 0.16 0.14 0.12 0.11 0.12 0.14 0.14 0.16 0.18 0.11 0.06 0.03 0.01 0.00 0.00 0.00 0.00 0.00 0.00 0.00 0.00 0.00 0.00 0.00 0.00 0.00 0.00 0.00 0.00 0.00 0.00 0.00
0.08 0.08 0.09 0.10 0.10 0.12 0.14 0.15 0.10 0.08 0.10 0.08 0.08 0.10 0.11 0.14 0.18 0.20 0.18 0.16 0.15 0.14 0.15 0.17 0.16 0.19 0.17 0.11 0.06 0.03 0.01 0.01 0.00 0.00 0.00 0.00 0.00 0.00 0.00 0.00 0.00 0.00 0.00 0.00 0.00 0.00 0.00 0.00 0.00
0.09 0.08 0.06 0.08 0.10 0.12 0.15 0.15 0.12 0.09 0.08 0.09 0.08 0.08 0.09 0.11 0.14 0.17 0.17 0.16 0.17 0.16 0.17 0.17 0.16 0.16 0.18 0.13 0.08 0.06 0.03 0.02 0.00 0.00 0.00 0.00 0.00 0.00 0.00 0.00 0.00 0.00 0.00 0.00 0.00 0.00 0.00 0.00 0.00
0.05 0.05 0.05 0.05 0.08 0.11 0.13 0.11 0.13 0.11 0.09 0.07 0.07 0.06 0.07 0.08 0.09 0.10 0.12 0.16 0.17 0.16 0.15 0.14 0.14 0.15 0.16 0.16 0.11 0.07 0.06 0.04 0.02 0.01 0.00 0.00 0.00 0.00 0.00 0.00 0.00 0.00 0.00 0.00 0.00 0.00 0.00 0.00 0.00
0.04 0.04 0.04 0.03 0.04 0.07 0.09 0.08 0.10 0.11 0.09 0.06 0.06 0.06 0.05 0.05 0.05 0.07 0.10 0.12 0.15 0.16 0.15 0.14 0.13 0.13 0.13 0.14 0.11 0.07 0.07 0.07 0.05 0.03 0.01 0.01 0.01 0.00 0.00 0.00 0.00 0.00 0.00 0.00 0.00 0.00 0.00 0.00 0.01
0.05 0.04 0.03 0.03 0.04 0.04 0.04 0.05 0.05 0.08 0.07 0.05 0.04 0.04 0.03 0.03 0.03 0.03 0.05 0.07 0.10 0.12 0.12 0.12 0.12 0.12 0.12 0.13 0.15 0.14 0.13 0.10 0.08 0.05 0.03 0.02 0.01 0.00 0.00 0.00 0.00 0.00 0.00 0.00 0.01 0.01 0.01 0.00 0.01
0.05 0.04 0.03 0.04 0.05 0.05 0.03 0.03 0.02 0.03 0.04 0.03 0.03 0.03 0.02 0.02 0.02 0.01 0.02 0.03 0.06 0.08 0.10 0.10 0.11 0.11 0.12 0.14 0.17 0.19 0.18 0.14 0.11 0.07 0.05 0.03 0.02 0.01 0.01 0.01 0.01 0.01 0.01 0.01 0.01 0.01 0.01 0.00 0.00
0.04 0.03 0.02 0.03 0.05 0.06 0.04 0.03 0.01 0.01 0.01 0.01 0.01 0.01 0.01 0.01 0.01 0.01 0.00 0.01 0.02 0.03 0.04 0.06 0.07 0.09 0.11 0.13 0.12 0.11 0.10 0.09 0.08 0.09 0.08 0.06 0.04 0.03 0.02 0.02 0.02 0.02 0.01 0.01 0.00 0.00 0.00 0.00 0.00
0.03 0.02 0.02 0.02 0.03 0.05 0.03 0.01 0.00 0.00 0.00 0.00 0.00 0.00 0.00 0.00 0.00 0.00 0.00 0.00 0.00 0.01 0.02 0.03 0.05 0.07 0.08 0.08 0.08 0.09 0.09 0.07 0.07 0.08 0.07 0.05 0.04 0.03 0.02 0.01 0.01 0.00 0.00 0.00 0.00 0.00 0.00 0.00 0.00
0.04 0.04 0.04 0.04 0.04 0.04 0.02 0.01 0.00 0.00 0.00 0.00 0.00 0.00 0.00 0.00 0.00 0.00 0.00 0.00 0.00 0.00 0.01 0.02 0.04 0.06 0.08 0.08 0.08 0.08 0.07 0.06 0.05 0.04 0.04 0.03 0.03 0.02 0.01 0.01 0.00 0.00 0.00 0.00 0.00 0.00 0.00 0.00 0.00
0.04 0.06 0.08 0.10 0.07 0.02 0.01 0.00 0.00 0.00 0.00 0.00 0.00 0.00 0.00 0.00 0.00 0.00 0.00 0.00 0.00 0.00 0.01 0.02 0.03 0.04 0.05 0.06 0.06 0.06 0.06 0.05 0.04 0.04 0.03 0.03 0.02 0.01 0.01 0.00 0.00 0.00 0.00 0.00 0.00 0.00 0.00 0.00 0.00
0.04 0.05 0.04 0.04 0.03 0.01 0.00 0.00 0.00 0.00 0.00 0.00 0.00 0.00 0.00 0.00 0.00 0.00 0.00 0.00 0.00 0.00 0.00 0.01 0.01 0.02 0.03 0.03 0.03 0.04 0.04 0.04 0.03 0.02 0.02 0.01 0.01 0.01 0.01 0.00 0.00 0.00 0.00 0.00 0.00 0.00 0.00 0.00 0.00
0.05 0.04 0.03 0.03 0.02 0.01 0.00 0.00 0.00 0.00 0.00 0.00 0.00 0.00 0.00 0.00 0.00 0.00 0.00 0.00 0.00 0.00 0.00 0.00 0.00 0.01 0.01 0.02 0.02 0.02 0.02 0.02 0.02 0.01 0.01 0.01 0.01 0.01 0.01 0.01 0.00 0.00 0.00 0.00 0.00 0.00 0.00 0.00 0.00
0.04 0.04 0.04 0.04 0.02 0.01 0.00 0.00 0.00 0.00 0.00 0.00 0.00 0.00 0.00 0.00 0.00 0.00 0.00 0.00 0.00 0.00 0.00 0.00 0.00 0.00 0.00 0.01 0.01 0.02 0.02 0.02 0.02 0.01 0.01 0.01 0.01 0.01 0.01 0.00 0.00 0.00 0.00 0.00 0.00 0.00 0.00 0.00 0.00
0.02 0.04 0.03 0.03 0.03 0.01 0.01 0.00 0.00 0.00 0.00 0.00 0.00 0.00 0.00 0.00 0.00 0.00 0.00 0.00 0.00 0.00 0.00 0.00 0.00 0.00 0.00 0.00 0.00 0.01 0.01 0.01 0.01 0.01 0.01 0.00 0.00 0.00 0.00 0.00 0.00 0.00 0.00 0.00 0.00 0.00 0.00 0.00 0.00
0.02 0.01 0.02 0.02 0.03 0.03 0.02 0.00 0.00 0.00 0.00 0.00 0.00 0.00 0.00 0.00 0.00 0.00 0.00 0.00 0.00 0.00 0.00 0.00 0.00 0.00 0.00 0.00 0.00 0.00 0.00 0.00 0.00 0.00 0.00 0.00 0.00 0.00 0.00 0.00 0.00 0.00 0.00 0.00 0.00 0.00 0.00 0.00 0.00
MSLP
1014.90 1015.35 1015.91 1016.45 1016.84 1017.00 1016.90 1016.55 1016.03 1015.45 1014.94 1014.58 1014.41 1014.42 1014.58 1014.79 1014.98 1015.10 1015.11 1015.05 1014.96 1014.92 1014.98 1015.17 1015.49 1015.90 1016.33 1016.72 1017.01 1017.18 1017.24 1017.22 1017.19 1017.19 1017.26 1017.41 1017.64 1017.91 1018.19 1018.43 1018.62 1018.76 1018.84 1018.90 1018.95 1019.01 1019.09 1019.17 1019.26
1015.15 1015.65 1016.19 1016.64 1016.89 1016.87 1016.58 1016.07 1015.44 1014.80 1014.28 1013.95 1013.84 1013.93 1014.15 1014.41 1014.63 1014.77 1014.81 1014.79 1014.76 1014.79 1014.93 1015.19 1015.58 1016.03 1016.48 1016.87 1017.15 1017.32 1017.38 1017.39 1017.41 1017.47 1017.60 1017.81 1018.08 1018.37 1018.63 1018.84 1018.99 1019.08 1019.13 1019.16 1019.19 1019.24 1019.32 1019.40 1019.49
1015.32 1015.82 1016.28 1016.61 1016.70 1016.52 1016.08 1015.46 1014.77 1014.14 1013.68 1013.44 1013.43 1013.61 1013.90 1014.21 1014.47 1014.62 1014.68 1014.68 1014.70 1014.78 1014.98 1015.31 1015.74 1016.22 1016.68 1017.06 1017.33 1017.49 1017.56 1017.59 1017.64 1017.74 1017.92 1018.16 1018.44 1018.72 1018.95 1019.13 1019.23 1019.29 1019.31 1019.34 1019.38 1019.44 1019.53 1019.63 1019.72
1015.40 1015.83 1016.19 1016.38 1016.31 1015.99 1015.45 1014.78 1014.10 1013.54 1013.18 1013.07 1013.18 1013.47 1013.84 1014.20 1014.48 1014.64 1014.71 1014.74 1014.78 1014.91 1015.16 1015.54 1016.01 1016.50 1016.95 1017.32 1017.57 1017.71 1017.77 1017.81 1017.88 1018.00 1018.20 1018.45 1018.73 1018.98 1019.19 1019.32 1019.40 1019.43 1019.45 1019.48 1019.55 1019.64 1019.76 1019.88 1019.99
1015.36 1015.70 1015.93 1015.97 1015.77 1015.34 1014.75 1014.08 1013.47 1013.02 1012.80 1012.83 1013.08 1013.48 1013.92 1014.31 1014.61 1014.78 1014.86 1014.91 1014.99 1015.16 1015.46 1015.87 1016.35 1016.85 1017.29 1017.63 1017.85 1017.97 1018.02 1018.06 1018.13 1018.27 1018.48 1018.72 1018.98 1019.21 1019.38 1019.49 1019.53 1019.56 1019.58 1019.64 1019.73 1019.87 1020.02 1020.16 1020.28
1015.23 1015.44 1015.53 1015.44 1015.13 1014.64 1014.04 1013.43 1012.92 1012.61 1012.54 1012.71 1013.07 1013.55 1014.03 1014.46 1014.76 1014.95 1015.04 1015.12 1015.24 1015.46 1015.80 1016.25 1016.75 1017.24 1017.66 1017.97 1018.16 1018.25 1018.29 1018.33 1018.41 1018.56 1018.76 1019.01 1019.25 1019.45 1019.59 1019.67 1019.70 1019.72 1019.76 1019.83 1019.96 1020.12 1020.30 1020.45 1020.56
1015.00 1015.09 1015.05 1014.85 1014.48 1013.97 1013.41 1012.88 1012.48 1012.30 1012.35 1012.63 1013.07 1013.58 1014.09 1014.52 1014.83 1015.03 1015.15 1015.28 1015.46 1015.74 1016.13 1016.61 1017.13 1017.61 1018.02 1018.30 1018.47 1018.54 1018.58 1018.62 1018.70 1018.86 1019.07 1019.31 1019.54 1019.73 1019.85 1019.91 1019.93 1019.95 1019.99 1020.07 1020.21 1020.38 1020.56 1020.72 1020.82
1014.71 1014.68 1014.55 1014.28 1013.88 1013.39 1012.89 1012.45 1012.16 1012.08 1012.21 1012.54 1013.00 1013.52 1014.01 1014.43 1014.73 1014.95 1015.12 1015.31 1015.56 1015.91 1016.36 1016.88 1017.42 1017.91 1018.30 1018.57 1018.72 1018.80 1018.83 1018.88 1018.99 1019.16 1019.38 1019.63 1019.86 1020.03 1020.15 1020.20 1020.21 1020.21 1020.25 1020.33 1020.46 1020.62 1020.79 1020.92 1021.00
1014.36 1014.27 1014.08 1013.79 1013.40 1012.97 1012.54 1012.19 1011.98 1011.95 1012.11 1012.43 1012.85 1013.32 1013.76 1014.14 1014.44 1014.68 1014.91 1015.17 1015.50 1015.94 1016.45 1017.02 1017.58 1018.07 1018.47 1018.73 1018.89 1018.97 1019.02 1019.09 1019.22 1019.42 1019.66 1019.91 1020.15 1020.32 1020.44 1020.48 1020.49 1020.48 1020.50 1020.56 1020.67 1020.81 1020.94 1021.05 1021.10
1014.02 1013.89 1013.69 1013.42 1013.10 1012.74 1012.39 1012.11 1011.95 1011.93 1012.05 1012.31 1012.64 1013.02 1013.39 1013.71 1014.00 1014.27 1014.55 1014.88 1015.30 1015.81 1016.38 1016.99 1017.58 1018.08 1018.48 1018.75 1018.92 1019.03 1019.11 1019.21 1019.37 1019.58 1019.84 1020.11 1020.35 1020.54 1020.66 1020.70 1020.71 1020.69 1020.70 1020.73 1020.81 1020.91 1021.01 1021.08 1021.10
1013.70 1013.59 1013.43 1013.24 1013.00 1012.74 1012.47 1012.25 1012.09 1012.04 1012.08 1012.23 1012.44 1012.69 1012.96 1013.23 1013.50 1013.78 1014.11 1014.51 1014.99 1015.56 1016.18 1016.81 1017.41 1017.93 1018.34 1018.63 1018.83 1018.96 1019.07 1019.21 1019.39 1019.63 1019.90 1020.18 1020.43 1020.63 1020.75 1020.81 1020.81 1020.80 1020.79 1020.81 1020.85 1020.92 1020.98 1021.03 1021.03
1013.47 1013.41 1013.35 1013.26 1013.14 1012.98 1012.79 1012.60 1012.43 1012.31 1012.25 1012.26 1012.33 1012.45 1012.61 1012.81 1013.05 1013.34 1013.69 1014.13 1014.65 1015.24 1015.88 1016.52 1017.13 1017.65 1018.07 1018.38 1018.61 1018.77 1018.92 1019.09 1019.29 1019.53 1019.81 1020.09 1020.34 1020.54 1020.68 1020.75 1020.78 1020.78 1020.77 1020.78 1020.81 1020.85 1020.89 1020.91 1020.91
1013.35 1013.39 1013.44 1013.49 1013.50 1013.45 1013.34 1013.17 1012.98 1012.78 1012.60 1012.47 1012.39 1012.38 1012.44 1012.57 1012.77 1013.04 1013.40 1013.84 1014.36 1014.94 1015.56 1016.17 1016.76 1017.27 1017.71 1018.04 1018.30 1018.51 1018.69 1018.87 1019.08 1019.32 1019.58 1019.85 1020.09 1020.29 1020.45 1020.55 1020.60 1020.63 1020.64 1020.66 1020.69 1020.72 1020.75 1020.77 1020.77
1013.37 1013.52 1013.72 1013.91 1014.05 1014.11 1014.07 1013.92 1013.70 1013.42 1013.14 1012.88 1012.68 1012.56 1012.53 1012.59 1012.74 1012.98 1013.31 1013.71 1014.17 1014.70 1015.25 1015.82 1016.36 1016.86 1017.30 1017.66 1017.96 1018.20 1018.41 1018.62 1018.82 1019.04 1019.27 1019.50 1019.73 1019.92 1020.09 1020.21 1020.31 1020.37 1020.43 1020.47 1020.52 1020.57 1020.60 1020.63 1020.63
1013.51 1013.79 1014.12 1014.46 1014.73 1014.89 1014.91 1014.78 1014.53 1014.19 1013.82 1013.46 1013.17 1012.96 1012.86 1012.87 1012.97 1013.15 1013.41 1013.74 1014.11 1014.54 1015.01 1015.49 1015.98 1016.46 1016.90 1017.29 1017.63 1017.91 1018.15 1018.36 1018.56 1018.75 1018.94 1019.13 1019.32 1019.50 1019.67 1019.83 1019.96 1020.07 1020.17 1020.26 1020.34 1020.41 1020.46 1020.50 1020.50
1013.75 1014.14 1014.60 1015.06 1015.44 1015.69 1015.76 1015.65 1015.37 1014.99 1014.56 1014.14 1013.79 1013.53 1013.38 1013.34 1013.39 1013.51 1013.69 1013.91 1014.17 1014.48 1014.82 1015.22 1015.64 1016.09 1016.53 1016.96 1017.34 1017.67 1017.94 1018.16 1018.35 1018.50 1018.65 1018.79 1018.94 1019.11 1019.27 1019.44 1019.61 1019.77 1019.92 1020.05 1020.17 1020.27 1020.34 1020.39 1020.39
1014.02 1014.51 1015.08 1015.64 1016.11 1016.41 1016.52 1016.41 1016.13 1015.71 1015.25 1014.80 1014.42 1014.14 1013.97 1013.90 1013.90 1013.96 1014.05 1014.16 1014.29 1014.47 1014.70 1014.99 1015.35 1015.77 1016.22 1016.68 1017.11 1017.49 1017.79 1018.03 1018.21 1018.34 1018.44 1018.54 1018.66 1018.79 1018.95 1019.14 1019.33 1019.52 1019.71 1019.88 1020.03 1020.15 1020.24 1020.30 1020.31
1014.26 1014.83 1015.47 1016.11 1016.63 1016.97 1017.09 1016.98 1016.68 1016.26 1015.78 1015.32 1014.93 1014.65 1014.48 1014.40 1014.38 1014.38 1014.39 1014.40 1014.42 1014.48 1014.60 1014.81 1015.11 1015.51 1015.97 1016.46 1016.93 1017.35 1017.70 1017.96 1018.14 1018.26 1018.34 1018.41 1018.49 1018.61 1018.75 1018.94 1019.14 1019.35 1019.56 1019.75 1019.92 1020.06 1020.17 1020.23 1020.25
1014.43 1015.05 1015.74 1016.40 1016.95 1017.30 1017.41 1017.29 1016.98 1016.54 1016.05 1015.60 1015.23 1014.97 1014.82 1014.75 1014.72 1014.69 1014.64 1014.58 1014.51 1014.48 1014.52 1014.66 1014.92 1015.30 1015.76 1016.27 1016.78 1017.25 1017.64 1017.92 1018.12 1018.24 1018.31 1018.38 1018.45 1018.55 1018.69 1018.87 1019.07 1019.28 1019.49 1019.68 1019.86 1020.00 1020.12 1020.19 1020.22
1014.51 1015.14 1015.85 1016.52 1017.06 1017.39 1017.47 1017.33 1016.99 1016.53 1016.04 1015.60 1015.25 1015.03 1014.90 1014.86 1014.84 1014.81 1014.75 1014.65 1014.54 1014.45 1014.44 1014.53 1014.76 1015.12 1015.59 1016.11 1016.65 1017.14 1017.56 1017.88 1018.11 1018.25 1018.35 1018.42 1018.51 1018.61 1018.75 1018.92 1019.11 1019.31 1019.50 1019.68 1019.84 1019.99 1020.10 1020.18 1020.21
1014.49 1015.13 1015.82 1016.47 1016.97 1017.26 1017.31 1017.12 1016.74 1016.26 1015.77 1015.33 1015.01 1014.82 1014.73 1014.72 1014.74 1014.74 1014.69 1014.60 1014.49 1014.39 1014.36 1014.44 1014.65 1014.99 1015.44 1015.96 1016.50 1017.01 1017.45 1017.80 1018.07 1018.26 1018.40 1018.51 1018.63 1018.77 1018.92 1019.09 1019.27 1019.44 1019.60 1019.75 1019.89 1020.01 1020.11 1020.19 1020.23
1014.43 1015.05 1015.71 1016.32 1016.78 1017.01 1017.00 1016.75 1016.34 1015.83 1015.32 1014.89 1014.58 1014.41 1014.37 1014.40 1014.47 1014.52 1014.52 1014.47 1014.39 1014.32 1014.31 1014.39 1014.59 1014.91 1015.33 1015.83 1016.35 1016.85 1017.29 1017.67 1017.98 1018.23 1018.43 1018.62 1018.80 1018.98 1019.17 1019.34 1019.51 1019.65 1019.78 1019.89 1019.99 1020.08 1020.16 1020.24 1020.29
1014.38 1014.97 1015.60 1016.15 1016.55 1016.72 1016.65 1016.35 1015.89 1015.34 1014.81 1014.37 1014.07 1013.92 1013.91 1013.99 1014.11 1014.22 1014.29 1014.31 1014.29 1014.28 1014.30 1014.39 1014.59 1014.88 1015.27 1015.72 1016.20 1016.67 1017.12 1017.51 1017.86 1018.18 1018.46 1018.73 1018.99 1019.23 1019.45 1019.65 1019.80 1019.92 1020.01 1020.07 1020.13 1020.19 1020.25 1020.31 1020.37
1014.40 1014.96 1015.54 1016.05 1016.38 1016.49 1016.36 1016.01 1015.50 1014.93 1014.37 1013.92 1013.61 1013.47 1013.47 1013.59 1013.75 1013.92 1014.07 1014.16 1014.23 1014.28 1014.35 1014.47 1014.66 1014.93 1015.27 1015.67 1016.10 1016.53 1016.95 1017.36 1017.75 1018.12 1018.49 1018.84 1019.18 1019.49 1019.75 1019.97 1020.12 1020.22 1020.27 1020.29 1020.31 1020.33 1020.36 1020.41 1020.46
1014.52 1015.06 1015.60 1016.06 1016.33 1016.39 1016.20 1015.80 1015.26 1014.66 1014.09 1013.62 1013.30 1013.16 1013.16 1013.29 1013.49 1013.71 1013.91 1014.08 1014.22 1014.33 1014.46 1014.60 1014.80 1015.05 1015.35 1015.69 1016.06 1016.45 1016.85 1017.26 1017.68 1018.11 1018.54 1018.97 1019.38 1019.74 1020.05 1020.28 1020.43 1020.51 1020.53 1020.51 1020.49 1020.48 1020.49 1020.53 1020.57
1014.76 1015.28 1015.79 1016.19 1016.42 1016.42 1016.19 1015.76 1015.20 1014.59 1014.00 1013.53 1013.20 1013.04 1013.04 1013.16 1013.37 1013.61 1013.86 1014.08 1014.27 1014.45 1014.61 1014.79 1014.99 1015.23 1015.49 1015.79 1016.12 1016.47 1016.85 1017.26 1017.70 1018.16 1018.65 1019.13 1019.59 1019.99 1020.33 1020.56 1020.71 1020.76 1020.75 1020.71 1020.66 1020.63 1020.63 1020.65 1020.68
1015.10 1015.60 1016.07 1016.42 1016.60 1016.56 1016.30 1015.86 1015.30 1014.68 1014.11 1013.63 1013.30 1013.13 1013.11 1013.21 1013.41 1013.65 1013.91 1014.15 1014.38 1014.59 1014.80 1015.00 1015.21 1015.45 1015.70 1015.97 1016.27 1016.60 1016.97 1017.38 1017.83 1018.32 1018.83 1019.34 1019.82 1020.23 1020.57 1020.80 1020.92 1020.95 1020.93 1020.86 1020.80 1020.76 1020.75 1020.78 1020.81
1015.47 1015.95 1016.38 1016.68 1016.81 1016.74 1016.46 1016.02 1015.47 1014.89 1014.34 1013.88 1013.56 1013.38 1013.34 1013.42 1013.59 1013.80 1014.04 1014.28 1014.52 1014.75 1014.97 1015.20 1015.43 1015.67 1015.93 1016.20 1016.50 1016.83 1017.20 1017.61 1018.07 1018.57 1019.08 1019.59 1020.06 1020.46 1020.77 1020.97 1021.07 1021.08 1021.03 1020.96 1020.90 1020.87 1020.87 1020.91 1020.96
1015.82 1016.27 1016.64 1016.89 1016.97 1016.86 1016.58 1016.15 1015.64 1015.11 1014.61 1014.20 1013.91 1013.73 1013.68 1013.73 1013.86 1014.03 1014.23 1014.44 1014.66 1014.88 1015.11 1015.34 1015.59 1015.86 1016.14 1016.44 1016.76 1017.11 1017.50 1017.93 1018.40 1018.89 1019.39 1019.87 1020.31 1020.67 1020.93 1021.08 1021.15 1021.13 1021.08 1021.01 1020.96 1020.96 1021.00 1021.07 1021.14
1016.09 1016.48 1016.79 1016.97 1016.99 1016.85 1016.57 1016.18 1015.72 1015.26 1014.84 1014.50 1014.26 1014.11 1014.06 1014.09 1014.17 1014.29 1014.43 1014.59 1014.77 1014.96 1015.17 1015.41 1015.68 1015.97 1016.29 1016.63 1017.00 1017.39 1017.82 1018.27 1018.75 1019.24 1019.72 1020.16 1020.55 1020.85 1021.05 1021.15 1021.18 1021.14 1021.08 1021.03 1021.02 1021.05 1021.13 1021.25 1021.37
Thickness
5637 5643 5649 5647 5635 5627 5636 5661 5683 5695 5702 5715 5722 5725 5724 5725 5727 5729 5748 5758 5757 5754 5751 5749 5747 5745 5744 5743 5742 5742 5741 5741 5740 5740 5740 5739 5739 5738 5736 5735 5733 5731 5730 5728 5726 5725 5723 5721 5720
5627 5633 5634 5628 5617 5613 5634 5664 5679 5694 5704 5712 5716 5720 5721 5726 5736 5740 5745 5751 5752 5750 5747 5745 5744 5743 5741 5740 5740 5739 5738 5738 5737 5737 5737 5736 5735 5734 5732 5731 5729 5728 5726 5725 5723 5722 5720 5718 5717
5617 5624 5618 5613 5609 5621 5644 5670 5683 5695 5703 5705 5704 5712 5716 5723 5733 5738 5743 5746 5746 5744 5743 5741 5741 5739 5738 5737 5737 5736 5735 5735 5734 5734 5733 5733 5732 5730 5728 5727 5726 5724 5722 5721 5720 5719 5717 5716 5715
5606 5608 5606 5603 5611 5635 5657 5674 5684 5686 5692 5699 5699 5701 5712 5726 5732 5737 5739 5741 5740 5738 5738 5737 5737 5736 5735 5734 5734 5733 5732 5732 5731 5731 5730 5729 5728 5726 5725 5723 5722 5721 5719 5718 5717 5716 5714 5713 5712
5595 5594 5592 5596 5614 5639 5657 5671 5679 5679 5684 5691 5694 5695 5705 5721 5731 5733 5733 5734 5733 5733 5732 5732 5732 5732 5731 5731 5731 5730 5729 5728 5728 5727 5727 5726 5724 5723 5721 5720 5719 5717 5716 5715 5714 5713 5712 5711 5710
5579 5582 5583 5593 5615 5638 5653 5667 5672 5674 5679 5685 5690 5691 5699 5714 5720 5722 5725 5726 5727 5727 5727 5727 5727 5727 5727 5727 5727 5727 5726 5725 5725 5724 5723 5722 5721 5719 5718 5716 5715 5714 5713 5712 5711 5711 5710 5708 5707
5570 5575 5584 5598 5612 5628 5648 5663 5666 5670 5674 5681 5691 5688 5693 5704 5713 5717 5718 5719 5720 5721 5722 5722 5722 5722 5723 5723 5723 5723 5722 5722 5721 5720 5719 5718 5717 5716 5715 5713 5712 5711 5710 5709 5708 5708 5707 5706 5705
5569 5573 5582 5593 5607 5624 5647 5658 5667 5671 5674 5686 5691 5686 5689 5701 5707 5709 5710 5711 5712 5714 5716 5716 5717 5717 5718 5719 5719 5719 5719 5718 5717 5716 5716 5715 5713 5712 5711 5710 5709 5708 5707 5706 5706 5705 5704 5704 5703
5564 5564 5576 5593 5607 5625 5642 5648 5662 5673 5674 5678 5687 5694 5699 5703 5703 5701 5701 5700 5703 5707 5710 5711 5712 5712 5713 5714 5714 5715 5715 5714 5713 5712 5712 5711 5710 5709 5708 5707 5706 5705 5704 5704 5703 5702 5701 5701 5700
5553 5560 5581 5601 5612 5622 5632 5640 5650 5660 5663 5669 5679 5688 5694 5697 5698 5696 5695 5696 5697 5700 5704 5706 5707 5708 5709 5710 5710 5710 5710 5710 5710 5709 5708 5707 5707 5706 5705 5704 5703 5703 5702 5701 5700 5700 5699 5698 5698
5550 5563 5583 5596 5608 5616 5622 5631 5643 5651 5654 5665 5674 5681 5686 5690 5693 5694 5694 5696 5696 5697 5699 5702 5703 5704 5705 5706 5706 5706 5706 5706 5706 5705 5704 5704 5703 5702 5702 5701 5700 5699 5699 5698 5697 5697 5696 5696 5695
5547 5563 5577 5588 5600 5607 5612 5621 5630 5641 5653 5666 5676 5682 5683 5684 5689 5692 5693 5693 5695 5694 5695 5698 5699 5700 5701 5702 5703 5703 5703 5702 5702 5702 5701 5700 5700 5699 5699 5698 5697 5697 5696 5695 5695 5694 5694 5693 5693
5541 5557 5571 5581 5591 5598 5606 5613 5621 5634 5649 5661 5669 5674 5678 5682 5685 5689 5692 5693 5693 5693 5693 5694 5696 5697 5698 5699 5699 5700 5700 5700 5700 5699 5698 5698 5697 5696 5696 5695 5695 5694 5693 5692 5692 5691 5691 5690 5690
5539 5551 5562 5572 5580 5589 5597 5607 5615 5629 5641 5651 5658 5664 5671 5675 5679 5682 5686 5688 5689 5691 5692 5693 5693 5694 5695 5696 5697 5697 5697 5697 5697 5697 5696 5696 5696 5695 5694 5693 5692 5691 5691 5690 5689 5688 5688 5688 5687
5535 5543 5552 5564 5572 5580 5590 5595 5609 5622 5631 5639 5647 5655 5662 5669 5674 5678 5683 5686 5688 5689 5690 5691 5692 5691 5692 5693 5693 5694 5694 5694 5693 5693 5693 5693 5693 5692 5691 5690 5689 5689 5688 5688 5686 5685 5685 5684 5684
5528 5532 5538 5556 5566 5575 5578 5585 5605 5614 5620 5628 5635 5644 5652 5660 5668 5674 5678 5682 5684 5686 5687 5689 5690 5688 5688 5689 5690 5690 5690 5690 5690 5690 5690 5689 5689 5689 5688 5686 5686 5685 5684 5684 5683 5681 5680 5679 5678
5518 5523 5533 5548 5561 5568 5572 5581 5597 5605 5611 5617 5626 5634 5642 5650 5659 5666 5672 5677 5679 5682 5683 5684 5686 5685 5684 5684 5685 5685 5686 5686 5686 5685 5685 5685 5684 5684 5683 5682 5681 5681 5680 5679 5678 5677 5675 5674 5673
5512 5523 5534 5543 5555 5561 5566 5575 5589 5598 5604 5609 5617 5625 5633 5642 5651 5658 5665 5670 5673 5676 5678 5679 5681 5680 5680 5678 5678 5679 5679 5680 5680 5680 5679 5679 5679 5678 5678 5676 5675 5674 5673 5672 5672 5671 5670 5668 5667
5517 5526 5532 5542 5554 5557 5561 5569 5580 5589 5597 5603 5610 5617 5626 5635 5644 5651 5658 5663 5666 5668 5671 5673 5675 5675 5674 5673 5672 5672 5672 5672 5672 5673 5673 5673 5672 5672 5671 5670 5669 5668 5666 5665 5665 5664 5662 5661 5660
5516 5522 5529 5540 5552 5555 5556 5564 5574 5583 5591 5599 5606 5613 5621 5629 5637 5644 5650 5656 5661 5664 5666 5668 5670 5671 5671 5671 5669 5668 5667 5667 5667 5666 5666 5666 5665 5665 5664 5663 5661 5660 5659 5657 5656 5655 5654 5653 5652
5517 5523 5529 5538 5545 5552 5554 5557 5568 5580 5589 5597 5605 5613 5619 5625 5632 5639 5644 5650 5655 5658 5662 5664 5665 5666 5667 5666 5663 5661 5659 5658 5657 5657 5657 5657 5657 5656 5655 5654 5653 5652 5651 5649 5647 5646 5645 5643 5642
5517 5529 5536 5540 5539 5540 5550 5547 5564 5576 5584 5594 5602 5609 5617 5626 5632 5636 5640 5644 5649 5653 5656 5658 5660 5661 5660 5660 5658 5656 5654 5652 5652 5651 5650 5649 5648 5648 5647 5645 5644 5643 5641 5640 5638 5637 5636 5634 5632
5521 5531 5536 5539 5537 5537 5544 5545 5560 5574 5581 5593 5603 5610 5617 5624 5630 5634 5639 5643 5645 5647 5650 5652 5653 5653 5654 5654 5653 5651 5650 5648 5645 5643 5640 5638 5638 5637 5636 5635 5634 5633 5631 5630 5629 5627 5626 5624 5622
5524 5527 5530 5530 5531 5531 5542 5543 5556 5572 5588 5598 5605 5611 5617 5622 5626 5631 5635 5637 5637 5639 5641 5643 5644 5644 5645 5646 5646 5645 5643 5639 5636 5634 5631 5629 5627 5626 5626 5625 5624 5622 5621 5619 5618 5616 5615 5613 5612
5522 5519 5518 5520 5523 5529 5543 5545 5560 5584 5594 5601 5607 5612 5616 5619 5621 5624 5626 5628 5629 5631 5632 5633 5635 5635 5635 5636 5637 5636 5635 5633 5630 5627 5624 5621 5618 5615 5614 5614 5612 5611 5610 5608 5607 5605 5604 5602 5600
5520 5521 5518 5520 5524 5528 5541 5544 5566 5586 5594 5601 5605 5609 5611 5614 5617 5619 5621 5622 5622 5623 5624 5624 5625 5626 5626 5627 5626 5626 5625 5623 5620 5618 5616 5613 5609 5606 5604 5602 5601 5600 5598 5597 5595 5594 5592 5590 5588
5521 5521 5526 5522 5524 5526 5535 5550 5568 5584 5587 5592 5596 5600 5603 5607 5611 5612 5613 5614 5614 5614 5615 5616 5616 5616 5616 5616 5615 5614 5613 5612 5609 5607 5605 5602 5598 5595 5592 5590 5589 5587 5585 5584 5583 5581 5580 5578 5576
5525 5524 5519 5519 5522 5525 5535 5545 5554 5570 5576 5582 5586 5590 5594 5598 5600 5603 5604 5604 5604 5605 5605 5605 5606 5606 5605 5605 5605 5603 5601 5599 5597 5594 5591 5589 5586 5583 5581 5578 5576 5574 5573 5571 5570 5568 5567 5566 5563
5520 5522 5522 5518 5519 5519 5526 5538 5559 5564 5569 5572 5576 5580 5585 5588 5590 5592 5593 5594 5594 5594 5594 5594 5594 5594 5594 5593 5592 5590 5587 5585 5583 5581 5578 5576 5573 5571 5568 5566 5564 5562 5560 5558 5557 5555 5554 5552 5550
5521 5522 5521 5516 5516 5515 5516 5533 5558 5560 5563 5565 5568 5572 5575 5579 5580 5581 5582 5582 5582 5582 5583 5583 5583 5583 5583 5582 5580 5577 5575 5572 5570 5568 5565 5563 5561 5558 5556 5554 5551 5549 5547 5546 5544 5543 5541 5539 5537